Regional Weather Roundup
Issued by NWS

Home | Current Version | Previous Version | Graphics & Text | Print | Product List | Glossary On
Versions: 1 2 3 4 5 6 7 8 9 10 11 12 13 14 15 16 17 18 19 20 21 22 23 24 25 26 27 28 29 30 31 32 33 34 35 36 37 38 39 40 41 42 43 44 45 46 47 48 49 50
000
ASUS45 KBOI 030410
RWRID

IDAHO REGIONAL WEATHER ROUNDUP
NATIONAL WEATHER SERVICE BOISE ID
1000 PM MDT MON MAY 02 2016

NOTE: "FAIR" INDICATES FEW OR NO CLOUDS BELOW 12000 FEET
WITH NO SIGNIFICANT WEATHER AND/OR OBSTRUCTIONS TO VISIBILITY

IDZ012-014-030500-
SOUTHWEST IDAHO


CITY           SKY/WX    TMP DP  RH WIND       PRES   REMARKS
BOISE          CLEAR     63  30  28 E5        30.08R
CALDWELL       CLEAR     60  35  39 N7        30.07R
MOUNTAIN HOME  CLEAR     56  35  44 E7        30.09R
$$

IDZ016-017-030500-
SOUTHCENTRAL IDAHO


CITY           SKY/WX    TMP DP  RH WIND       PRES   REMARKS
BURLEY         CLEAR     51  37  58 CALM      30.15R
JEROME         CLEAR     51  39  63 NE6       30.15R
TWIN FALLS     CLEAR     48  38  68 E6        30.15R
$$

IDZ019>023-030500-
SOUTHEAST IDAHO


CITY           SKY/WX    TMP DP  RH WIND       PRES   REMARKS
IDAHO FALLS    CLOUDY    54  22  28 SW6       30.18R
POCATELLO      CLOUDY    45  34  65 S6        30.18R
REXBURG        CLEAR     53  22  29 CALM      30.17R
$$

IDZ006-010-011-018-031-032-030500-
CENTRAL IDAHO MOUNTAINS


CITY           SKY/WX    TMP DP  RH WIND       PRES   REMARKS
MCCALL         CLEAR     53  38  56 CALM      30.15R
HAILEY         CLEAR     46  30  53 W5        30.23R
STANLEY          N/A     45  25  45 CALM      30.22R
SALMON         CLEAR     54  34  47 CALM      30.08R
CHALLIS        CLEAR     52  24  33 CALM      30.13R
$$

IDZ002-004-006-007-026-030500-
NORTHERN IDAHO


CITY           SKY/WX    TMP DP  RH WIND       PRES   REMARKS
LEWISTON       CLEAR     65  47  52 SE7       29.99R
LOWELL           N/A     57  49  74 N3        30.04R
COEUR D`ALENE  CLEAR     63  45  51 CALM      30.02R
MULLAN PASS    CLEAR     54  30  40 NW7       30.20R
$$



USA.gov is the U.S. government's official web portal to all federal, state and local government web resources and services.